NTS 2 AKM

基本信息
目录编号:
26376
目录名称:
NTS 2 AKM
国际标识:
1977-053C
轨道中心:
EARTH
物体状态:
在轨
发射日期:
1977-06-23 UTC
国别:
美国 (US)
轨道信息
数据来源: 国际轨道数据
星历时间: 2026-07-10T12:28:35+0800
半长轴: 26237.468km
偏心率: 0.0427851
轨道倾角: 62.761°
近地点辐角: 218.392°
升交点赤经: 253.816°
平近点角: 138.567°
近地点: 18736.758km
远地点: 20981.904km
周期: 704.924分钟
每日圈数: 2.042772
详细信息
发射场:
AFWTR
轨道高度:
MEO
数据来源:
AOE Integration Group
参考系:
TEME
时间系统:
UTC
历元类型:
SGP4
2D轨道图
3D轨道图
轨道高度分析图
轨道倾角分析图
轨道综合分析图
查看轨道综合分析图